Portada
METAR-TAF:

METAR-TAF

Aeroports :

La Argelia

Loja, Equador

latitud: 03-59-45S, longitud: 079-22-19W, altitud: 1236 m

Observació

L'informe es va fer fa 10 minuts, a les 22:00 UTC
Vent 6 kt del Oest/Sud-Oest, variant entre Sud i Oest
Temperatura 23°C
Humitat 69%
Pressió 1016 hPa
Visibilitat 10 km o més
Cel ennuvolat a una alçada de 4000 ft
xàfecs en les proximitats

METAR: SECA 242200Z 24006KT 180V270 9999 VCSH BKN040 23/17 Q1016 RETS

Hora: 17:10 (22:10 UTC)


TAF: manca

Observacions i pronòstics meteorològics de més de 4000 aeroports (METAR i TAF).

Les estacions disponibles són els punts grocs i vermells al mapa.

Posi el ratolí al punt desitjat per veure el nom de l'estació.

Feu clic per veure les observacions i els pronòstics meteorològics.

Per canviar el mapa: feu clic els botons verds amb una creu de color negre per apropar; al botó verd amb un guió per allunyar la imatge; o en les fletxes verdes per a mapes adjacents.


METAR-TAF: